| time (UTC) | temp F | wind direction | speed MPH | gust MPH | rain 1hr in | rain 24hr in | rain mn in | humidity % | barometer mb |
| 20260506211420 | 79 | 286 | 10.0 | 19.0 | 0.00 | 0.00 | 0.00 | 31 | 1011.8 |
| 20260506210914 | 79 | 295 | 11.0 | 17.0 | 0.00 | 0.00 | 0.00 | 31 | 1011.9 |
| 20260506210407 | 79 | 301 | 10.0 | 17.0 | 0.00 | 0.00 | 0.00 | 33 | 1011.8 |
| 20260506205902 | 79 | 318 | 10.0 | 18.0 | 0.00 | 0.00 | 0.00 | 32 | 1011.8 |
| 20260506205403 | 79 | 281 | 11.0 | 18.0 | 0.00 | 0.00 | 0.00 | 31 | 1011.9 |
| 20260506204857 | 79 | 292 | 11.0 | 18.0 | 0.00 | 0.00 | 0.00 | 31 | 1011.8 |
| 20260506204352 | 79 | 276 | 12.0 | 18.0 | 0.00 | 0.00 | 0.00 | 32 | 1011.8 |
| 20260506203851 | 79 | 305 | 9.0 | 15.0 | 0.00 | 0.00 | 0.00 | 33 | 1011.8 |
| 20260506203352 | 78 | 293 | 8.0 | 15.0 | 0.00 | 0.00 | 0.00 | 32 | 1011.9 |
| 20260506202346 | 79 | 285 | 13.0 | 21.0 | 0.00 | 0.00 | 0.00 | 30 | 1011.8 |
| 20260506201847 | 79 | 298 | 11.0 | 23.0 | 0.00 | 0.00 | 0.00 | 32 | 1011.9 |
| 20260506201341 | 79 | 315 | 8.0 | 23.0 | 0.00 | 0.00 | 0.00 | 31 | 1012.0 |
| 20260506200836 | 79 | 280 | 13.0 | 19.0 | 0.00 | 0.00 | 0.00 | 30 | 1012.0 |
| 20260506200330 | 78 | 290 | 10.0 | 19.0 | 0.00 | 0.00 | 0.00 | 31 | 1012.0 |
| 20260506195830 | 78 | 304 | 11.0 | 19.0 | 0.00 | 0.00 | 0.00 | 30 | 1012.0 |
| 20260506194818 | 78 | 288 | 9.0 | 20.0 | 0.00 | 0.00 | 0.00 | 32 | 1012.1 |
| 20260506194319 | 78 | 294 | 9.0 | 19.0 | 0.00 | 0.00 | 0.00 | 33 | 1011.9 |
| 20260506193314 | 77 | 269 | 10.0 | 21.0 | 0.00 | 0.00 | 0.00 | 33 | 1012.1 |
| 20260506192808 | 77 | 308 | 9.0 | 19.0 | 0.00 | 0.00 | 0.00 | 33 | 1012.1 |
| 20260506192305 | 77 | 266 | 11.0 | 19.0 | 0.00 | 0.00 | 0.00 | 33 | 1012.1 |
| 20260506191802 | 77 | 289 | 9.0 | 19.0 | 0.00 | 0.00 | 0.00 | 33 | 1012.3 |
| 20260506191259 | 78 | 273 | 7.0 | 15.0 | 0.00 | 0.00 | 0.00 | 34 | 1012.1 |
| 20260506190251 | 77 | 271 | 11.0 | 21.0 | 0.00 | 0.00 | 0.00 | 34 | 1012.4 |
| 20260506185745 | 77 | 285 | 8.0 | 19.0 | 0.00 | 0.00 | 0.00 | 34 | 1012.4 |
| 20260506185239 | 77 | 289 | 11.0 | 19.0 | 0.00 | 0.00 | 0.00 | 31 | 1012.1 |
| 20260506184733 | 77 | 292 | 11.0 | 19.0 | 0.00 | 0.00 | 0.00 | 34 | 1012.0 |
| 20260506183728 | 76 | 304 | 12.0 | 19.0 | 0.00 | 0.00 | 0.00 | 34 | 1012.3 |
| 20260506183228 | 76 | 260 | 11.0 | 19.0 | 0.00 | 0.00 | 0.00 | 35 | 1012.3 |
| 20260506182722 | 76 | 318 | 9.0 | 19.0 | 0.00 | 0.00 | 0.00 | 34 | 1012.4 |
| 20260506182223 | 76 | 296 | 11.0 | 19.0 | 0.00 | 0.00 | 0.00 | 35 | 1012.4 |
| 20260506181217 | 76 | 302 | 12.0 | 18.0 | 0.00 | 0.00 | 0.00 | 35 | 1012.4 |
| 20260506180717 | 76 | 307 | 10.0 | 16.0 | 0.00 | 0.00 | 0.00 | 34 | 1012.4 |
| 20260506180218 | 76 | 296 | 10.0 | 18.0 | 0.00 | 0.00 | 0.00 | 34 | 1012.5 |
| 20260506175717 | 77 | 296 | 10.0 | 18.0 | 0.00 | 0.00 | 0.00 | 34 | 1012.4 |
| 20260506175214 | 77 | 321 | 9.0 | 16.0 | 0.00 | 0.00 | 0.00 | 35 | 1012.3 |
| 20260506173706 | 76 | 284 | 10.0 | 16.0 | 0.00 | 0.00 | 0.00 | 36 | 1012.6 |
| 20260506172206 | 75 | 340 | 4.0 | 7.0 | 0.00 | 0.00 | 0.00 | 38 | 1012.5 |
| 20260506171706 | 75 | 297 | 4.0 | 7.0 | 0.00 | 0.00 | 0.00 | 39 | 1012.6 |
| 20260506171200 | 74 | 297 | 4.0 | 9.0 | 0.00 | 0.00 | 0.00 | 38 | 1012.6 |
| 20260506170701 | 74 | 324 | 4.0 | 9.0 | 0.00 | 0.00 | 0.00 | 38 | 1012.7 |
| 20260506170155 | 74 | 29 | 3.0 | 8.0 | 0.00 | 0.00 | 0.00 | 40 | 1012.7 |
| 20260506165149 | 73 | 323 | 5.0 | 8.0 | 0.00 | 0.00 | 0.00 | 38 | 1012.8 |
| 20260506164644 | 72 | 8 | 2.0 | 7.0 | 0.00 | 0.00 | 0.00 | 40 | 1012.8 |
| 20260506164145 | 71 | 37 | 2.0 | 8.0 | 0.00 | 0.00 | 0.00 | 42 | 1012.9 |
| 20260506163644 | 70 | 266 | 2.0 | 8.0 | 0.00 | 0.00 | 0.00 | 43 | 1012.9 |
| 20260506163145 | 70 | 105 | 5.0 | 8.0 | 0.00 | 0.00 | 0.00 | 49 | 1013.0 |
| 20260506162140 | 69 | 38 | 3.0 | 6.0 | 0.00 | 0.00 | 0.00 | 44 | 1013.1 |
| 20260506161635 | 69 | 297 | 2.0 | 6.0 | 0.00 | 0.00 | 0.00 | 44 | 1013.2 |
| 20260506160629 | 67 | 340 | 3.0 | 6.0 | 0.00 | 0.00 | 0.00 | 46 | 1013.1 |
| 20260506160123 | 67 | 331 | 2.0 | 5.0 | 0.00 | 0.00 | 0.00 | 46 | 1013.2 |
| 20260506155624 | 66 | 323 | 4.0 | 5.0 | 0.00 | 0.00 | 0.00 | 47 | 1013.2 |
| 20260506155118 | 66 | 38 | 3.0 | 7.0 | 0.00 | 0.00 | 0.00 | 47 | 1013.2 |
| 20260506154113 | 64 | 321 | 4.0 | 8.0 | 0.00 | 0.00 | 0.00 | 48 | 1013.3 |
| 20260506152603 | 62 | 328 | 2.0 | 6.0 | 0.00 | 0.00 | 0.00 | 52 | 1013.5 |
| 20260506151603 | 60 | 321 | 4.0 | 8.0 | 0.00 | 0.00 | 0.00 | 53 | 1013.5 |
| 20260506151058 | 60 | 315 | 6.0 | 7.0 | 0.00 | 0.00 | 0.00 | 53 | 1013.5 |
| 20260506150553 | 59 | 302 | 5.0 | 8.0 | 0.00 | 0.00 | 0.00 | 53 | 1013.6 |
| 20260506150047 | 59 | 314 | 5.0 | 9.0 | 0.00 | 0.00 | 0.00 | 54 | 1013.6 |
| 20260506145535 | 58 | 336 | 6.0 | 10.0 | 0.00 | 0.00 | 0.00 | 54 | 1013.7 |
| 20260506144029 | 56 | 352 | 5.0 | 7.0 | 0.00 | 0.00 | 0.00 | 58 | 1013.7 |
| 20260506143024 | 56 | 351 | 3.0 | 6.0 | 0.00 | 0.00 | 0.00 | 58 | 1014.0 |
| 20260506142519 | 56 | 311 | 4.0 | 6.0 | 0.00 | 0.00 | 0.00 | 57 | 1013.7 |
| 20260506142013 | 56 | 304 | 3.0 | 6.0 | 0.00 | 0.00 | 0.00 | 58 | 1014.0 |
| 20260506141513 | 55 | 312 | 2.0 | 5.0 | 0.00 | 0.00 | 0.00 | 57 | 1014.0 |
| 20260506141014 | 56 | 310 | 1.0 | 6.0 | 0.00 | 0.00 | 0.00 | 57 | 1013.9 |
| 20260506140513 | 56 | 317 | 3.0 | 8.0 | 0.00 | 0.00 | 0.00 | 56 | 1014.0 |
| 20260506135503 | 55 | 338 | 5.0 | 8.0 | 0.00 | 0.00 | 0.00 | 57 | 1013.7 |
| 20260506134959 | 55 | 347 | 2.0 | 5.0 | 0.00 | 0.00 | 0.00 | 58 | 1013.7 |
| 20260506134457 | 55 | 335 | 3.0 | 7.0 | 0.00 | 0.00 | 0.00 | 58 | 1013.7 |
| 20260506133958 | 54 | 335 | 4.0 | 8.0 | 0.00 | 0.00 | 0.00 | 58 | 1013.7 |
| 20260506133452 | 54 | 325 | 4.0 | 8.0 | 0.00 | 0.00 | 0.00 | 59 | 1013.7 |
| 20260506132951 | 55 | 355 | 6.0 | 8.0 | 0.00 | 0.00 | 0.00 | 58 | 1013.7 |
| 20260506132446 | 54 | 354 | 5.0 | 8.0 | 0.00 | 0.00 | 0.00 | 59 | 1013.6 |
| 20260506131940 | 54 | 351 | 3.0 | 6.0 | 0.00 | 0.00 | 0.00 | 59 | 1013.6 |
| 20260506130930 | 54 | 20 | 3.0 | 5.0 | 0.00 | 0.00 | 0.00 | 61 | 1013.7 |
| 20260506130425 | 54 | 15 | 2.0 | 5.0 | 0.00 | 0.00 | 0.00 | 60 | 1013.6 |
| 20260506125924 | 54 | 333 | 3.0 | 8.0 | 0.00 | 0.00 | 0.00 | 60 | 1013.7 |
| 20260506124911 | 54 | 356 | 3.0 | 7.0 | 0.00 | 0.00 | 0.00 | 59 | 1013.7 |
| 20260506124413 | 54 | 16 | 3.0 | 6.0 | 0.00 | 0.00 | 0.00 | 60 | 1013.7 |
| 20260506123907 | 53 | 337 | 2.0 | 4.0 | 0.00 | 0.00 | 0.00 | 62 | 1013.4 |
| 20260506123407 | 53 | 39 | 2.0 | 3.0 | 0.00 | 0.00 | 0.00 | 64 | 1013.4 |
| 20260506122907 | 53 | 343 | 1.0 | 5.0 | 0.00 | 0.00 | 0.00 | 63 | 1013.5 |
| 20260506122407 | 54 | 323 | 2.0 | 8.0 | 0.00 | 0.00 | 0.00 | 61 | 1013.3 |
| 20260506121900 | 55 | 322 | 4.0 | 8.0 | 0.00 | 0.00 | 0.00 | 59 | 1013.4 |
| 20260506121359 | 55 | 349 | 4.0 | 7.0 | 0.00 | 0.00 | 0.00 | 58 | 1013.3 |
| 20260506120854 | 55 | 345 | 2.0 | 6.0 | 0.00 | 0.00 | 0.00 | 58 | 1013.3 |
| 20260506120349 | 55 | 333 | 2.0 | 5.0 | 0.00 | 0.00 | 0.00 | 58 | 1013.3 |
| 20260506114843 | 55 | 340 | 3.0 | 5.0 | 0.00 | 0.00 | 0.00 | 59 | 1013.4 |
| 20260506114338 | 55 | 342 | 1.0 | 5.0 | 0.00 | 0.00 | 0.00 | 59 | 1013.3 |
| 20260506113838 | 56 | 350 | 3.0 | 5.0 | 0.00 | 0.00 | 0.00 | 58 | 1013.4 |
| 20260506113332 | 56 | 349 | 2.0 | 5.0 | 0.00 | 0.00 | 0.00 | 57 | 1013.4 |
| 20260506112826 | 56 | 32 | 2.0 | 5.0 | 0.00 | 0.00 | 0.00 | 57 | 1013.4 |
| 20260506112322 | 56 | 349 | 2.0 | 5.0 | 0.00 | 0.00 | 0.00 | 58 | 1013.3 |
| 20260506111315 | 55 | 358 | 2.0 | 4.0 | 0.00 | 0.00 | 0.00 | 58 | 1013.4 |
| 20260506110815 | 55 | 335 | 2.0 | 4.0 | 0.00 | 0.00 | 0.00 | 60 | 1013.5 |
| 20260506110311 | 54 | 24 | 2.0 | 4.0 | 0.00 | 0.00 | 0.00 | 62 | 1013.4 |
| 20260506105808 | 55 | 338 | 1.0 | 6.0 | 0.00 | 0.00 | 0.00 | 60 | 1013.2 |
| 20260506104756 | 56 | 323 | 3.0 | 5.0 | 0.00 | 0.00 | 0.00 | 58 | 1013.2 |
| 20260506104258 | 56 | 338 | 2.0 | 4.0 | 0.00 | 0.00 | 0.00 | 57 | 1013.4 |
| 20260506103751 | 57 | 356 | 2.0 | 6.0 | 0.00 | 0.00 | 0.00 | 56 | 1013.3 |
| 20260506102739 | 57 | 349 | 2.0 | 6.0 | 0.00 | 0.00 | 0.00 | 57 | 1013.3 |
| 20260506102233 | 57 | 327 | 4.0 | 7.0 | 0.00 | 0.00 | 0.00 | 56 | 1013.2 |
| 20260506101227 | 57 | 25 | 3.0 | 6.0 | 0.00 | 0.00 | 0.00 | 56 | 1013.2 |
| 20260506100222 | 58 | 335 | 2.0 | 4.0 | 0.00 | 0.00 | 0.00 | 56 | 1013.2 |
| 20260506094716 | 58 | 331 | 4.0 | 7.0 | 0.00 | 0.00 | 0.00 | 55 | 1013.2 |
| 20260506094217 | 58 | 6 | 3.0 | 6.0 | 0.00 | 0.00 | 0.00 | 55 | 1013.2 |
| 20260506093711 | 58 | 345 | 4.0 | 6.0 | 0.00 | 0.00 | 0.00 | 55 | 1013.3 |
| 20260506093212 | 58 | 4 | 2.0 | 4.0 | 0.00 | 0.00 | 0.00 | 55 | 1013.3 |
| 20260506092712 | 58 | 32 | 2.0 | 7.0 | 0.00 | 0.00 | 0.00 | 56 | 1013.4 |
| 20260506092213 | 58 | 348 | 1.0 | 7.0 | 0.00 | 0.00 | 0.00 | 55 | 1013.2 |
| 20260506091706 | 58 | 348 | 5.0 | 7.0 | 0.00 | 0.00 | 0.00 | 55 | 1013.2 |
| 20260506091206 | 58 | 7 | 2.0 | 6.0 | 0.00 | 0.00 | 0.00 | 55 | 1013.2 |
| 20260506090155 | 59 | 355 | 3.0 | 6.0 | 0.00 | 0.00 | 0.00 | 54 | 1013.3 |
| 20260506085655 | 59 | 338 | 2.0 | 8.0 | 0.00 | 0.00 | 0.00 | 54 | 1013.2 |
| 20260506084649 | 59 | 345 | 4.0 | 6.0 | 0.00 | 0.00 | 0.00 | 55 | 1013.2 |
| 20260506084150 | 59 | 354 | 2.0 | 5.0 | 0.00 | 0.00 | 0.00 | 56 | 1013.2 |
| 20260506083650 | 59 | 345 | 1.0 | 8.0 | 0.00 | 0.00 | 0.00 | 56 | 1013.1 |
| 20260506083144 | 60 | 319 | 5.0 | 8.0 | 0.00 | 0.00 | 0.00 | 54 | 1013.2 |
| 20260506082644 | 60 | 335 | 4.0 | 7.0 | 0.00 | 0.00 | 0.00 | 54 | 1013.1 |
| 20260506082144 | 60 | 336 | 5.0 | 7.0 | 0.00 | 0.00 | 0.00 | 54 | 1013.1 |
| 20260506081138 | 59 | 349 | 1.0 | 6.0 | 0.00 | 0.00 | 0.00 | 55 | 1013.1 |
| 20260506080633 | 60 | 35 | 3.0 | 6.0 | 0.00 | 0.00 | 0.00 | 54 | 1013.2 |
| 20260506080133 | 60 | 15 | 2.0 | 5.0 | 0.00 | 0.00 | 0.00 | 54 | 1013.0 |
| 20260506073113 | 61 | 69 | 1.0 | 4.0 | 0.00 | 0.00 | 0.00 | 52 | 1012.8 |
| 20260506072607 | 61 | 347 | 2.0 | 4.0 | 0.00 | 0.00 | 0.00 | 52 | 1012.7 |
| 20260506072107 | 61 | 329 | 2.0 | 4.0 | 0.00 | 0.00 | 0.00 | 52 | 1012.7 |
| 20260506070602 | 61 | 21 | 2.0 | 4.0 | 0.00 | 0.00 | 0.00 | 53 | 1012.5 |
| 20260506061524 | 65 | 5 | 2.0 | 5.0 | 0.00 | 0.00 | 0.00 | 48 | 1012.1 |
| 20260506061019 | 65 | 357 | 3.0 | 4.0 | 0.00 | 0.00 | 0.00 | 48 | 1012.0 |
| 20260506051014 | 70 | 324 | 4.0 | 9.0 | 0.00 | 0.00 | 0.00 | 42 | 1012.0 |
| 20260506050513 | 71 | 314 | 4.0 | 9.0 | 0.00 | 0.00 | 0.00 | 42 | 1011.9 |
| 20260506044956 | 71 | 336 | 2.0 | 6.0 | 0.00 | 0.00 | 0.00 | 42 | 1011.8 |
| 20260506044450 | 71 | 339 | 3.0 | 6.0 | 0.00 | 0.00 | 0.00 | 42 | 1011.8 |
| 20260506043439 | 70 | 31 | 1.0 | 4.0 | 0.00 | 0.00 | 0.00 | 43 | 1011.8 |
| 20260506042932 | 70 | 34 | 1.0 | 3.0 | 0.00 | 0.00 | 0.00 | 43 | 1011.5 |
| 20260506042434 | 70 | 23 | 1.0 | 4.0 | 0.00 | 0.00 | 0.00 | 42 | 1011.6 |
| 20260506041928 | 70 | 32 | 0.0 | 4.0 | 0.00 | 0.00 | 0.00 | 42 | 1011.6 |
| 20260506040917 | 72 | 31 | 1.0 | 4.0 | 0.00 | 0.00 | 0.00 | 40 | 1011.4 |
| 20260506035907 | 73 | 342 | 0.0 | 7.0 | 0.00 | 0.00 | 0.00 | 38 | 1011.3 |
| 20260506035406 | 73 | 75 | 1.0 | 3.0 | 0.00 | 0.00 | 0.00 | 38 | 1011.3 |
| 20260506034900 | 73 | 314 | 1.0 | 6.0 | 0.00 | 0.00 | 0.00 | 38 | 1011.2 |
| 20260506034355 | 74 | 301 | 3.0 | 6.0 | 0.00 | 0.00 | 0.00 | 37 | 1010.9 |
| 20260506033851 | 74 | 72 | 2.0 | 8.0 | 0.00 | 0.00 | 0.00 | 37 | 1010.9 |
| 20260506032310 | 74 | 287 | 1.0 | 8.0 | 0.00 | 0.00 | 0.00 | 37 | 1010.8 |
| 20260506031806 | 75 | 27 | 5.0 | 11.0 | 0.00 | 0.00 | 0.00 | 36 | 1010.7 |
| 20260506031301 | 75 | 331 | 3.0 | 11.0 | 0.00 | 0.00 | 0.00 | 36 | 1010.4 |
| 20260506030258 | 76 | 309 | 4.0 | 8.0 | 0.00 | 0.00 | 0.00 | 35 | 1010.3 |
| 20260506025753 | 76 | 288 | 2.0 | 15.0 | 0.00 | 0.00 | 0.00 | 35 | 1010.1 |
| 20260506025246 | 77 | 304 | 5.0 | 15.0 | 0.00 | 0.00 | 0.00 | 33 | 1010.1 |
| 20260506024236 | 78 | 267 | 5.0 | 9.0 | 0.00 | 0.00 | 0.00 | 33 | 1009.9 |
| 20260506023733 | 78 | 263 | 5.0 | 9.0 | 0.00 | 0.00 | 0.00 | 32 | 1010.0 |
| 20260506023226 | 79 | 262 | 4.0 | 13.0 | 0.00 | 0.00 | 0.00 | 32 | 1010.0 |
| 20260506022721 | 79 | 260 | 5.0 | 13.0 | 0.00 | 0.00 | 0.00 | 32 | 1009.9 |
| 20260506022217 | 80 | 284 | 5.0 | 16.0 | 0.00 | 0.00 | 0.00 | 31 | 1010.0 |
| 20260506021711 | 80 | 264 | 8.0 | 16.0 | 0.00 | 0.00 | 0.00 | 30 | 1009.8 |
| 20260506021207 | 80 | 295 | 6.0 | 19.0 | 0.00 | 0.00 | 0.00 | 30 | 1009.9 |
| 20260506020701 | 80 | 245 | 8.0 | 19.0 | 0.00 | 0.00 | 0.00 | 30 | 1009.8 |
| 20260506020155 | 81 | 310 | 8.0 | 14.0 | 0.00 | 0.00 | 0.00 | 29 | 1009.8 |
| 20260506015144 | 82 | 266 | 7.0 | 11.0 | 0.00 | 0.00 | 0.00 | 29 | 1009.7 |
| 20260506014642 | 82 | 271 | 7.0 | 12.0 | 0.00 | 0.00 | 0.00 | 29 | 1009.6 |
| 20260506014135 | 82 | 278 | 5.0 | 12.0 | 0.00 | 0.00 | 0.00 | 29 | 1009.5 |
| 20260506013631 | 82 | 317 | 6.0 | 13.0 | 0.00 | 0.00 | 0.00 | 28 | 1009.6 |
| 20260506013126 | 82 | 287 | 7.0 | 13.0 | 0.00 | 0.00 | 0.00 | 28 | 1009.7 |
| 20260506012621 | 82 | 281 | 7.0 | 12.0 | 0.00 | 0.00 | 0.00 | 28 | 1009.6 |
| 20260506012117 | 83 | 321 | 5.0 | 11.0 | 0.00 | 0.00 | 0.00 | 29 | 1009.5 |
| 20260506011611 | 83 | 272 | 6.0 | 11.0 | 0.00 | 0.00 | 0.00 | 28 | 1009.8 |
| 20260506010605 | 84 | 304 | 5.0 | 11.0 | 0.00 | 0.00 | 0.00 | 27 | 1009.7 |
| 20260506010100 | 83 | 304 | 5.0 | 11.0 | 0.00 | 0.00 | 0.00 | 27 | 1009.6 |
| 20260506005555 | 84 | 300 | 3.0 | 7.0 | 0.00 | 0.00 | 0.00 | 28 | 1009.7 |
| 20260506004544 | 84 | 290 | 5.0 | 7.0 | 0.00 | 0.00 | 0.00 | 30 | 1009.7 |
| 20260506004039 | 84 | 287 | 2.0 | 9.0 | 0.00 | 0.00 | 0.00 | 28 | 1009.7 |
| 20260506003533 | 83 | 129 | 3.0 | 9.0 | 0.00 | 0.00 | 0.00 | 26 | 1009.7 |
| 20260506003034 | 84 | 248 | 1.0 | 5.0 | 0.00 | 0.00 | 0.00 | 28 | 1009.6 |
| 20260506002529 | 83 | 140 | 3.0 | 7.0 | 0.00 | 0.00 | 0.00 | 27 | 1009.8 |
| 20260506002030 | 84 | 128 | 4.0 | 7.0 | 0.00 | 0.00 | 0.00 | 27 | 1009.8 |
| 20260506001532 | 84 | 185 | 3.0 | 7.0 | 0.00 | 0.00 | 0.00 | 28 | 1009.8 |
| 20260506000525 | 84 | 238 | 6.0 | 9.0 | 0.00 | 0.00 | 0.00 | 26 | 1009.9 |
| 20260505235521 | 84 | 280 | 4.0 | 10.0 | 0.00 | 0.00 | 0.00 | 25 | 1009.9 |
| 20260505235019 | 84 | 188 | 4.0 | 10.0 | 0.00 | 0.00 | 0.00 | 27 | 1009.8 |
| 20260505234513 | 85 | 279 | 4.0 | 10.0 | 0.00 | 0.00 | 0.00 | 27 | 1010.0 |
| 20260505234013 | 84 | 247 | 4.0 | 8.0 | 0.00 | 0.00 | 0.00 | 26 | 1009.9 |
| 20260505233008 | 84 | 210 | 3.0 | 8.0 | 0.00 | 0.00 | 0.00 | 26 | 1009.8 |
| 20260505231956 | 84 | 247 | 2.0 | 7.0 | 0.00 | 0.00 | 0.00 | 27 | 1009.8 |
| 20260505231456 | 83 | 285 | 4.0 | 7.0 | 0.00 | 0.00 | 0.00 | 25 | 1010.0 |
| 20260505230955 | 83 | 259 | 4.0 | 7.0 | 0.00 | 0.00 | 0.00 | 26 | 1010.0 |
| 20260505230450 | 83 | 267 | 4.0 | 6.0 | 0.00 | 0.00 | 0.00 | 26 | 1010.2 |
| 20260505225944 | 82 | 278 | 1.0 | 4.0 | 0.00 | 0.00 | 0.00 | 30 | 1010.1 |
| 20260505225445 | 82 | 169 | 1.0 | 4.0 | 0.00 | 0.00 | 0.00 | 29 | 1010.1 |
| 20260505224938 | 82 | 173 | 2.0 | 9.0 | 0.00 | 0.00 | 0.00 | 25 | 1010.1 |
| 20260505223926 | 83 | 304 | 4.0 | 8.0 | 0.00 | 0.00 | 0.00 | 26 | 1010.2 |
| 20260505223420 | 82 | 312 | 5.0 | 6.0 | 0.00 | 0.00 | 0.00 | 25 | 1010.3 |
| 20260505222919 | 83 | 297 | 3.0 | 8.0 | 0.00 | 0.00 | 0.00 | 25 | 1010.4 |
| 20260505222419 | 83 | 283 | 5.0 | 8.0 | 0.00 | 0.00 | 0.00 | 24 | 1010.6 |
| 20260505221421 | 82 | 289 | 1.0 | 9.0 | 0.00 | 0.00 | 0.00 | 26 | 1010.6 |
| 20260505220919 | 82 | 316 | 3.0 | 9.0 | 0.00 | 0.00 | 0.00 | 24 | 1010.6 |
| 20260505220419 | 83 | 300 | 3.0 | 6.0 | 0.00 | 0.00 | 0.00 | 23 | 1010.7 |
| 20260505215919 | 83 | 96 | 2.0 | 5.0 | 0.00 | 0.00 | 0.00 | 23 | 1010.7 |
| 20260505214913 | 83 | 330 | 4.0 | 6.0 | 0.00 | 0.00 | 0.00 | 23 | 1010.7 |
| 20260505214413 | 83 | 277 | 2.0 | 13.0 | 0.00 | 0.00 | 0.00 | 25 | 1010.8 |
| 20260505213914 | 83 | 337 | 8.0 | 13.0 | 0.00 | 0.00 | 0.00 | 22 | 1010.9 |
| 20260505213407 | 83 | 354 | 4.0 | 8.0 | 0.00 | 0.00 | 0.00 | 24 | 1011.0 |
| 20260505211901 | 83 | 258 | 1.0 | 8.0 | 0.00 | 0.00 | 0.00 | 25 | 1011.2 |